Wind_Speed
19 20 19 19 20 18 17 16 16 17 18 18 20 20 22 22 22 25 25 26 25 24 24 23 23 22 22 22 23 22 23 23 21 20 21 21 20 19 17 16 17 18 17
22 21 20 19 19 18 17 17 17 18 18 19 19 19 22 24 25 24 23 24 22 21 22 22 23 23 23 24 23 23 25 25 24 19 19 20 17 16 15 16 18 18 17
23 21 19 18 17 16 16 17 17 17 18 19 20 22 24 23 23 23 23 22 22 21 20 21 23 24 27 24 22 19 20 20 23 20 18 18 17 16 16 17 18 18 17
22 20 18 17 16 16 16 16 16 17 18 19 19 20 21 22 22 22 21 20 19 18 18 20 23 23 24 23 22 23 22 19 21 16 17 20 19 18 17 17 17 16 16
20 16 16 15 15 16 16 15 17 17 18 18 19 20 20 20 20 20 20 20 19 18 18 20 22 25 24 23 21 20 23 20 14 13 17 18 18 17 15 15 15 14 14
17 14 16 16 16 16 15 16 17 18 19 19 20 19 21 20 19 17 16 16 17 17 17 19 21 24 25 24 20 17 17 18 12 14 15 15 14 15 14 15 15 14 13
15 15 16 15 16 16 16 16 17 18 19 18 19 18 19 19 18 17 17 16 17 17 17 18 20 24 25 25 22 20 16 11 11 14 15 16 13 13 15 14 13 12 11
17 16 16 16 15 16 16 17 18 18 18 18 18 17 16 17 17 17 17 17 17 18 18 18 20 22 24 25 23 19 17 9 10 11 12 12 12 13 12 12 11 10 10
16 14 15 16 15 15 15 16 18 18 19 18 18 17 17 16 16 16 18 18 19 19 20 20 22 21 21 22 20 16 14 12 11 10 12 12 13 13 12 11 11 11 12
14 17 14 13 13 13 16 17 18 17 17 16 16 16 17 16 16 18 18 19 20 22 22 23 26 28 26 23 19 16 8 9 9 7 10 12 12 12 11 11 12 13 13
16 15 15 11 12 13 16 17 17 16 18 17 16 15 15 16 17 18 17 18 19 20 21 23 26 25 23 18 16 12 11 8 11 6 9 11 12 12 12 13 14 14 15
16 17 15 12 18 14 17 18 19 18 17 16 17 18 15 13 15 17 18 18 18 15 15 16 15 13 14 15 13 13 8 7 10 6 9 11 12 12 13 14 15 15 14
21 20 17 17 16 13 18 17 20 20 17 16 14 19 17 14 12 15 16 13 10 11 12 12 10 10 11 12 13 12 9 4 12 6 8 11 12 13 14 15 15 14 15
21 22 16 14 14 11 14 18 18 18 13 19 21 18 17 17 15 11 7 7 11 15 12 14 13 18 14 5 9 5 9 4 11 7 9 12 13 14 15 15 15 15 15
24 22 15 14 12 9 14 14 16 18 26 20 15 20 15 12 10 7 7 6 12 10 13 16 14 15 11 7 8 14 10 4 7 10 11 13 14 15 15 14 15 15 16
24 21 17 17 12 17 14 12 16 16 17 20 18 17 17 14 14 9 7 9 13 9 10 12 14 12 8 10 7 10 9 4 7 15 14 14 14 14 13 13 15 16 16
20 16 17 21 15 19 14 12 19 16 12 15 15 15 13 13 13 13 4 8 7 9 7 5 2 4 7 11 10 5 8 9 7 7 9 13 13 12 12 12 14 14 15
23 14 17 24 17 19 20 18 16 16 11 7 11 11 12 15 11 7 10 9 6 4 2 3 2 6 7 5 9 8 5 8 8 4 5 3 5 10 10 12 12 12 13
18 17 22 14 21 23 19 19 16 13 13 12 9 6 15 17 13 13 10 5 7 1 3 5 7 10 10 4 6 5 2 5 9 4 2 3 3 5 6 6 6 6 9
19 19 20 15 18 18 20 21 16 17 14 10 9 6 17 15 9 16 7 7 9 5 5 6 6 6 7 9 6 8 3 3 2 7 6 4 3 3 6 6 4 3 4
24 24 21 17 15 19 22 17 15 14 13 11 10 8 7 15 10 7 8 10 8 7 10 6 5 6 9 4 8 8 6 3 2 1 4 2 3 4 5 3 6 8 4
25 23 16 18 19 16 18 17 17 13 10 7 8 6 9 14 7 6 7 7 17 9 13 9 5 7 2 3 5 4 3 6 8 2 4 5 2 6 5 4 8 8 7
25 23 20 18 16 17 15 15 15 14 12 13 8 7 9 8 11 3 5 7 11 10 7 7 3 3 5 4 3 4 1 1 5 5 6 6 8 4 7 10 13 9 7
27 25 21 18 21 19 16 17 17 15 12 9 6 6 7 7 7 3 5 2 5 8 7 5 2 1 1 2 7 3 8 12 4 4 2 5 3 7 7 3 10 12 10
25 25 19 19 23 18 15 14 15 18 12 11 9 8 7 7 7 5 4 4 6 10 8 8 1 3 2 3 6 3 1 3 4 10 2 6 2 9 11 4 3 6 8
24 23 19 18 18 20 16 13 15 16 17 13 11 9 6 6 10 10 6 5 10 10 11 5 3 5 3 8 5 9 11 5 4 9 6 17 13 15 4 10 5 3 9
Wind_Direction
128 125 122 115 110 107 108 105 105 104 101 97 97 99 104 103 99 99 100 105 102 100 99 99 99 98 96 100 100 99 94 90 91 95 100 99 99 96 89 97 96 95 95
133 126 121 117 116 116 115 110 108 105 103 100 99 100 103 104 102 104 103 104 103 100 98 98 97 96 99 96 100 97 94 90 87 92 100 97 101 101 97 99 97 95 95
131 126 123 123 122 119 116 116 113 110 108 106 104 104 105 106 105 103 102 102 104 103 100 98 98 103 98 100 98 103 95 98 89 87 97 97 96 100 101 99 96 95 92
130 127 124 122 121 123 120 120 116 111 109 108 106 107 108 107 107 106 102 104 103 101 101 99 102 109 103 99 99 94 95 100 95 89 97 101 99 99 99 98 97 99 97
121 123 123 124 124 122 124 125 119 114 113 113 112 111 109 108 107 106 102 99 101 101 100 103 107 110 109 103 96 95 88 86 103 103 103 104 104 98 102 104 102 98 98
131 125 124 124 125 124 124 125 121 120 120 117 117 115 114 110 107 107 105 104 102 100 98 103 108 116 114 101 92 83 99 82 105 106 106 107 107 115 104 98 100 96 92
135 130 121 116 117 122 126 126 120 123 123 123 118 116 115 112 106 106 105 103 102 100 100 103 108 119 116 111 105 101 93 64 90 107 111 109 104 110 109 107 103 108 91
131 128 121 120 119 124 127 125 123 122 121 121 122 119 114 108 106 109 107 102 98 96 97 99 102 117 120 114 113 113 116 89 91 115 114 111 107 103 105 104 102 97 92
109 115 117 117 122 125 126 127 127 125 122 129 123 120 116 113 109 109 105 101 97 95 96 95 97 104 123 118 121 122 109 82 78 105 107 106 102 99 99 97 95 92 87
100 99 102 111 115 118 125 127 124 126 120 122 129 128 120 113 112 110 105 98 96 97 95 98 101 100 109 114 115 117 113 90 46 79 97 101 99 99 101 97 91 88 87
131 120 117 105 99 119 123 124 127 123 121 118 125 128 123 117 121 112 101 99 105 105 99 102 100 101 104 101 99 112 132 84 35 85 98 99 102 102 97 95 94 90 86
108 127 137 111 104 122 123 123 124 128 126 130 133 129 125 122 126 112 103 100 108 102 100 103 109 106 108 105 98 113 109 60 31 82 101 105 103 101 101 99 94 92 89
128 134 133 124 120 119 114 123 136 123 132 141 155 142 134 127 117 117 107 98 97 105 93 77 89 107 118 120 116 117 144 121 34 72 99 102 103 105 104 99 98 93 86
132 139 133 132 128 154 119 132 118 116 130 160 145 148 131 122 114 114 110 126 90 118 116 106 102 84 106 108 88 121 171 76 29 68 94 104 107 107 102 100 95 89 83
136 144 128 126 134 148 164 139 116 102 122 149 151 134 143 134 124 138 177 119 136 99 98 126 110 93 76 83 99 121 104 134 50 77 97 104 106 105 102 99 94 87 81
148 149 139 147 146 135 143 134 130 127 115 131 117 126 126 129 147 160 129 77 87 105 107 116 125 130 111 138 123 110 142 121 103 71 91 100 101 98 96 96 92 85 77
148 145 140 157 132 142 137 146 133 143 135 113 110 120 126 127 150 147 171 104 63 82 124 127 90 215 115 122 129 112 109 165 124 109 76 80 82 89 91 93 89 80 70
147 151 153 168 156 142 141 138 135 135 139 111 127 153 164 146 146 124 139 136 149 157 351 292 52 166 180 103 126 126 50 144 134 107 119 106 76 73 86 88 76 69 61
139 137 141 139 139 159 149 128 139 144 138 142 135 113 169 149 150 163 138 144 190 77 51 42 79 89 192 143 136 131 153 97 133 116 194 147 96 115 92 70 45 45 46
150 154 151 146 153 163 142 146 146 147 151 153 147 90 154 160 148 129 154 185 175 116 134 87 109 79 57 165 206 179 130 64 83 92 133 128 57 82 70 71 23 6 31
146 159 164 157 164 155 148 145 149 165 164 162 158 137 127 166 151 141 166 156 150 128 133 96 130 77 126 62 131 168 182 216 159 111 232 102 147 290 36 16 16 26 34
162 169 175 174 161 158 150 158 161 162 153 155 151 160 144 166 158 168 156 149 171 137 129 136 149 57 55 331 149 174 211 221 214 169 292 271 307 273 307 326 335 27 31
163 171 177 179 175 170 176 168 171 169 176 162 161 171 168 158 182 187 191 139 154 143 119 134 79 75 76 66 91 83 255 269 235 194 209 236 281 265 300 311 316 314 4
174 180 190 182 187 179 175 176 184 168 171 159 160 145 161 152 178 211 249 167 148 148 153 145 113 286 82 170 130 253 132 33 61 25 216 200 257 265 298 314 288 267 319
176 183 188 184 190 191 185 183 174 183 170 183 182 181 190 182 167 226 230 207 179 167 190 165 308 248 96 119 96 98 122 127 66 29 3 182 219 317 271 339 83 149 354
179 180 176 180 186 192 187 191 183 182 186 184 179 190 210 187 185 194 215 225 180 202 189 182 212 251 21 160 107 69 55 165 156 46 72 237 299 332 296 2 3 347 350
Height
1552 1553 1554 1555 1556 1556 1557 1558 1559 1558 1558 1559 1559 1560 1561 1560 1561 1562 1563 1564 1565 1566 1565 1567 1567 1568 1568 1569 1570 1570 1570 1570 1571 1571 1571 1572 1573 1573 1572 1573 1574 1574 1575
1551 1553 1555 1556 1557 1558 1559 1559 1559 1560 1560 1561 1561 1561 1561 1562 1563 1564 1565 1565 1566 1567 1568 1569 1570 1570 1571 1572 1571 1572 1572 1572 1572 1574 1574 1574 1575 1576 1576 1576 1575 1575 1577
1551 1553 1555 1556 1558 1558 1559 1560 1561 1562 1562 1563 1564 1563 1563 1565 1565 1566 1567 1568 1568 1569 1571 1571 1572 1572 1574 1574 1573 1574 1575 1576 1574 1575 1576 1577 1578 1578 1578 1578 1578 1578 1579
1551 1554 1556 1557 1558 1560 1561 1562 1563 1563 1564 1566 1566 1566 1567 1567 1568 1568 1569 1569 1570 1571 1572 1573 1574 1575 1576 1576 1576 1576 1578 1578 1576 1578 1579 1579 1580 1581 1581 1581 1581 1581 1581
1553 1556 1557 1558 1560 1561 1562 1563 1564 1565 1566 1568 1569 1569 1570 1571 1571 1571 1571 1572 1573 1573 1573 1575 1576 1577 1579 1579 1578 1577 1578 1579 1580 1581 1581 1582 1583 1583 1583 1583 1584 1583 1583
1552 1555 1557 1559 1560 1561 1562 1563 1565 1566 1568 1569 1570 1571 1572 1572 1573 1575 1576 1576 1576 1576 1576 1576 1579 1580 1581 1581 1581 1580 1581 1582 1583 1584 1584 1584 1584 1585 1585 1585 1585 1585 1585
1553 1556 1557 1559 1560 1562 1563 1565 1567 1568 1569 1571 1572 1574 1574 1574 1575 1577 1578 1579 1579 1578 1578 1579 1580 1582 1583 1585 1584 1584 1584 1584 1585 1586 1586 1586 1586 1587 1586 1587 1587 1587 1586
1555 1557 1558 1560 1561 1563 1564 1567 1569 1571 1573 1574 1575 1577 1579 1579 1579 1579 1579 1580 1581 1581 1581 1581 1582 1584 1586 1587 1588 1588 1588 1588 1588 1588 1588 1588 1588 1588 1588 1588 1588 1588 1587
1558 1560 1561 1561 1563 1564 1567 1568 1570 1572 1574 1575 1577 1579 1580 1581 1582 1582 1582 1582 1583 1583 1583 1584 1584 1586 1588 1590 1590 1591 1590 1590 1591 1590 1590 1589 1589 1589 1590 1589 1589 1589 1588
1558 1561 1564 1563 1563 1566 1568 1571 1573 1575 1577 1579 1580 1581 1583 1583 1585 1584 1586 1585 1585 1585 1585 1586 1586 1588 1591 1593 1593 1592 1591 1592 1592 1591 1591 1591 1590 1591 1591 1590 1591 1590 1589
1559 1562 1565 1565 1565 1567 1569 1572 1574 1577 1579 1580 1583 1585 1584 1586 1587 1588 1589 1589 1589 1588 1589 1590 1590 1592 1593 1595 1595 1595 1594 1593 1595 1594 1593 1591 1591 1592 1592 1592 1592 1591 1591
1560 1563 1566 1568 1568 1569 1571 1573 1575 1578 1579 1580 1583 1585 1588 1589 1590 1591 1593 1593 1593 1593 1593 1594 1594 1595 1595 1595 1596 1597 1595 1594 1596 1595 1594 1593 1592 1593 1593 1593 1593 1593 1593
1561 1565 1568 1569 1569 1571 1574 1576 1576 1580 1582 1582 1583 1586 1590 1590 1595 1596 1597 1597 1597 1597 1596 1598 1594 1594 1596 1595 1595 1598 1597 1598 1598 1597 1595 1594 1594 1594 1594 1594 1594 1595 1595
1560 1566 1568 1570 1571 1573 1578 1578 1582 1581 1580 1582 1585 1589 1591 1593 1597 1599 1598 1597 1598 1598 1598 1597 1595 1596 1596 1598 1598 1598 1599 1599 1599 1597 1596 1596 1596 1596 1596 1596 1596 1596 1596
1560 1566 1569 1571 1573 1573 1576 1580 1582 1584 1584 1587 1588 1590 1593 1597 1596 1599 1597 1598 1599 1599 1600 1600 1598 1598 1598 1601 1601 1602 1599 1601 1601 1599 1598 1598 1598 1598 1598 1598 1598 1598 1597
1561 1566 1570 1573 1573 1574 1578 1581 1584 1584 1588 1591 1591 1593 1595 1599 1599 1600 1600 1600 1600 1600 1601 1602 1603 1603 1603 1603 1603 1602 1602 1601 1602 1602 1601 1601 1601 1602 1602 1601 1600 1600 1599
1563 1567 1570 1573 1576 1577 1580 1583 1587 1588 1590 1591 1593 1595 1598 1601 1601 1603 1603 1600 1601 1602 1602 1603 1604 1604 1604 1604 1604 1603 1604 1604 1603 1604 1604 1604 1604 1604 1604 1604 1603 1602 1600
1564 1567 1570 1573 1576 1580 1582 1585 1586 1589 1590 1592 1595 1598 1599 1601 1602 1602 1602 1602 1602 1602 1600 1600 1603 1604 1604 1604 1605 1605 1605 1605 1606 1605 1605 1606 1606 1606 1606 1606 1606 1604 1602
1565 1568 1571 1574 1576 1580 1584 1586 1588 1591 1593 1595 1597 1598 1599 1601 1601 1600 1600 1600 1601 1602 1601 1601 1603 1604 1605 1606 1607 1607 1607 1608 1608 1608 1607 1608 1608 1607 1607 1607 1607 1606 1604
1565 1569 1572 1575 1577 1580 1584 1587 1589 1591 1594 1596 1597 1599 1600 1600 1599 1599 1599 1599 1601 1601 1602 1603 1605 1604 1604 1607 1607 1608 1608 1609 1609 1609 1611 1609 1607 1608 1607 1607 1607 1605 1605
1565 1569 1572 1575 1578 1581 1584 1587 1588 1591 1594 1596 1598 1599 1599 1599 1599 1598 1598 1600 1602 1602 1602 1602 1604 1605 1605 1607 1607 1609 1609 1610 1609 1610 1612 1611 1611 1609 1608 1608 1607 1606 1605
1564 1569 1573 1576 1579 1582 1584 1586 1588 1591 1593 1595 1597 1598 1598 1599 1599 1598 1599 1602 1602 1602 1602 1603 1605 1606 1606 1607 1609 1610 1610 1611 1611 1612 1613 1612 1614 1613 1612 1611 1609 1608 1606
1564 1569 1573 1576 1579 1581 1583 1585 1587 1589 1592 1594 1596 1598 1598 1599 1599 1600 1601 1603 1604 1603 1603 1603 1606 1608 1608 1607 1610 1612 1612 1611 1612 1612 1613 1613 1616 1615 1613 1612 1611 1610 1608
1562 1565 1571 1575 1578 1580 1581 1584 1586 1588 1590 1594 1596 1597 1598 1598 1599 1601 1602 1604 1603 1604 1605 1606 1608 1607 1608 1609 1609 1610 1611 1612 1610 1610 1613 1615 1614 1613 1611 1610 1607 1608 1609
1561 1565 1568 1573 1576 1579 1581 1584 1586 1588 1591 1592 1595 1596 1597 1599 1599 1600 1601 1603 1604 1604 1607 1608 1608 1609 1612 1613 1611 1611 1611 1611 1610 1610 1609 1610 1611 1610 1611 1608 1604 1607 1608
1559 1565 1569 1571 1574 1577 1580 1582 1585 1588 1591 1592 1594 1595 1596 1597 1598 1599 1600 1601 1604 1607 1609 1609 1610 1610 1612 1612 1614 1613 1612 1610 1611 1610 1608 1607 1612 1612 1610 1605 1601 1603 1605